Hourly Weather Roundup
Issued by NWS Central Illinois

Home | Current Version | Previous Version | Text Only | Print | Product List | Glossary Off
Versions: 1 2 3 4 5 6 7 8 9 10 11 12 13 14 15 16 17 18 19 20 21 22 23 24 25 26 27 28 29 30 31 32 33 34 35 36 37 38 39 40 41 42 43 44 45 46 47 48 49 50

000
NZUS43 KILX 122310
HWRILX

Area Weather Roundup
National Weather Service Lincoln IL
500 PM CST TUE DEC 12 2017

NOTE:  "FAIR" indicates few or no clouds below 12,000 feet, with
       no sigificant weather and/or obstructions to visibility.


CITY           SKY/WX    TMP DP  RH WIND       PRES   REMARKS
Bloomington    CLEAR     24   4  42 W12       30.06S WCI  13
Champaign      PTCLDY    24   3  40 NW13      30.07S WCI  12
Danville       CLEAR     23   5  46 NW8       30.03S WCI  14
Decatur        CLEAR     27   4  37 NW13      30.09F WCI  16
Effingham      CLEAR     29   8  41 W8        30.12S WCI  21
Flora          CLEAR     31   8  37 NW9       30.12F WCI  23
Galesburg      MOCLDY    24   8  51 W7        30.08F WCI  16
Jacksonville   CLEAR     24   2  39 W8        30.12S WCI  15
Lacon          MOCLDY    25   5  41 NW7       30.08S WCI  18
Lawrenceville  CLEAR     29   6  38 NW13      30.10S WCI  19
Litchfield     PTCLDY    28   4  37 NW7       30.11F WCI  20
$$


CITY           SKY/WX    TMP DP  RH WIND       PRES   REMARKS
Lincoln        CLEAR     28   6  39 W3        30.10F
Macomb         MOCLDY    27   4  37 W7        30.12F WCI  19
Mattoon        CLEAR     24   8  50 W10       30.07S WCI  14
Mt Carmel AP   CLEAR     28   5  37 NW8       30.10F WCI  20
Olney-Noble AP CLEAR     27   6  39 W7        30.11F WCI  20
Paris AP       CLEAR     24   5  43 NW8       30.08S WCI  16
Peoria         MOCLDY    27   2  34 W7        30.09F WCI  19
Pontiac        PTCLDY    22   8  53 NW5       30.08S WCI  16
Rantoul        CLEAR     26   5  39 NW9       30.06R WCI  17
Robinson       CLEAR     26   7  44 NW7       30.11S WCI  18
Springfield    CLEAR     28   3  34 W7        30.11F WCI  21
Taylorville    CLEAR     27   3  35 W8        30.11S WCI  19
$$

...REGIONAL REPORTS...


CITY           SKY/WX    TMP DP  RH WIND       PRES   REMARKS
Chicago O`Hare PTCLDY    19   7  59 W8        30.02S WCI   9
Kankakee       MOCLDY    20   6  55 NW8       30.07S WCI  10
Moline         MOCLDY    27   4  37 W7        30.07F WCI  19
Mount Sterling MOCLDY    29   2  32 W6        30.11F WCI  23
Mount Vernon   CLEAR     31   7  36 W5        30.13F WCI  26
Pittsfield     CLEAR     30   2  29 W3        30.13S
Quincy         MOCLDY    30   2  30 W7        30.10F WCI  23
Rockford       MOCLDY    19   7  59 W13       30.05S WCI   6
$$


CITY           SKY/WX    TMP DP  RH WIND       PRES   REMARKS
Burlington     CLOUDY    29   4  34 W5        30.09F WCI  24
Cedar Rapids   CLOUDY    22   5  48 W6        30.05F WCI  14
Des Moines     PTCLDY    31  18  58 SW7       30.05F WCI  24
Kirksville     PTCLDY    30   9  41 W6        30.12F WCI  24
Ottumwa        PTCLDY    27   5  39 W6        30.08F WCI  20
St Louis       MOCLDY    32   1  26 W8        30.14F WCI  25
$$


CITY           SKY/WX    TMP DP  RH WIND       PRES   REMARKS
Terre Haute    CLEAR     26   4  38 NW9       30.07F WCI  17
Evansville     CLEAR     30   8  39 W8        30.11S WCI  22
Indianapolis   PTCLDY    23   6  48 W15       30.03R WCI  10
Lafayette      CLEAR     20   8  60 NW7       30.04S WCI  11
Madison        PTCLDY    17   1  49 W3        30.00F
Milwaukee      PTCLDY    19   4  51 NW6       30.00F WCI  11
$$






USA.gov is the U.S. government's official web portal to all federal, state and local government web resources and services.